TimeMDT,TemperatureF,Dew PointF,Humidity,Sea Level PressureIn,VisibilityMPH,Wind Direction,Wind SpeedMPH,Gust SpeedMPH,PrecipitationIn,Events,Conditions,WindDirDegrees,DateUTC
12:53 AM,39.0,36.0,89,30.21,10.0,North,10.4,-,0.00,Rain,Light Rain,360,2014-05-12 06:53:00
1:53 AM,39.0,35.1,86,30.18,10.0,North,13.8,-,0.00,,Overcast,360,2014-05-12 07:53:00
2:19 AM,39.2,35.6,87,30.11,10.0,North,11.5,-,N/A,,Overcast,350,2014-05-12 08:19:00
2:53 AM,37.9,35.1,89,30.19,10.0,NNW,9.2,-,N/A,,Overcast,340,2014-05-12 08:53:00
3:53 AM,37.9,35.1,89,30.19,10.0,North,15.0,-,N/A,,Overcast,360,2014-05-12 09:53:00
4:34 AM,37.4,35.6,93,30.13,10.0,North,11.5,19.6,N/A,,Overcast,360,2014-05-12 10:34:00
4:53 AM,37.0,35.1,93,30.22,10.0,North,11.5,-,N/A,,Overcast,360,2014-05-12 10:53:00
5:42 AM,37.4,33.8,87,30.16,10.0,North,11.5,-,N/A,,Overcast,10,2014-05-12 11:42:00
5:53 AM,37.0,34.0,89,30.24,10.0,North,11.5,-,N/A,,Overcast,10,2014-05-12 11:53:00
6:53 AM,37.0,34.0,89,30.27,10.0,North,9.2,-,N/A,,Overcast,350,2014-05-12 12:53:00
8:53 AM,39.9,32.0,73,30.29,10.0,NNW,8.1,-,N/A,,Overcast,340,2014-05-12 14:53:00
9:53 AM,42.1,30.0,62,30.31,10.0,North,19.6,25.3,N/A,,Overcast,10,2014-05-12 15:53:00
10:53 AM,42.1,28.0,58,30.32,10.0,North,20.7,31.1,N/A,,Partly Cloudy,10,2014-05-12 16:53:00
11:53 AM,44.1,28.9,55,30.32,10.0,North,19.6,25.3,N/A,,Overcast,10,2014-05-12 17:53:00
12:53 PM,46.0,28.9,51,30.30,10.0,North,20.7,29.9,N/A,,Scattered Clouds,10,2014-05-12 18:53:00
1:53 PM,48.0,27.0,44,30.30,10.0,North,18.4,29.9,N/A,,Partly Cloudy,360,2014-05-12 19:53:00
2:53 PM,48.9,27.0,43,30.30,10.0,North,16.1,25.3,N/A,,Scattered Clouds,360,2014-05-12 20:53:00
3:53 PM,50.0,28.0,43,30.30,10.0,North,17.3,23.0,N/A,,Clear,360,2014-05-12 21:53:00
4:53 PM,51.1,26.1,38,30.30,10.0,North,18.4,-,N/A,,Partly Cloudy,10,2014-05-12 22:53:00
5:53 PM,51.1,27.0,39,30.30,10.0,North,16.1,23.0,N/A,,Mostly Cloudy,10,2014-05-12 23:53:00
6:53 PM,48.9,26.1,41,30.30,10.0,North,11.5,-,N/A,,Overcast,350,2014-05-13 00:53:00
7:53 PM,46.0,30.9,56,30.33,10.0,North,9.2,-,N/A,,Overcast,10,2014-05-13 01:53:00
9:53 PM,42.1,30.9,65,30.37,10.0,NNW,6.9,-,N/A,,Overcast,340,2014-05-13 03:53:00
10:53 PM,39.9,30.9,70,30.40,10.0,NW,8.1,-,N/A,,Overcast,320,2014-05-13 04:53:00
11:53 PM,39.0,28.9,67,30.40,10.0,WNW,9.2,-,N/A,,Mostly Cloudy,300,2014-05-13 05:53:00